Regional Weather Roundup
Issued by NWS Cleveland, OH

Home | Current Version | Previous Version | Graphics & Text | Print | Product List | Glossary On
Versions: 1 2 3 4 5 6 7 8 9 10 11 12 13 14 15 16 17 18 19 20 21 22 23 24 25 26 27 28 29 30 31 32 33 34 35 36 37 38 39 40 41 42 43 44 45 46 47 48 49 50
000
ASUS41 KCLE 241302
RWRCLE
OHIO REGIONAL WEATHER ROUNDUP
NATIONAL WEATHER SERVICE CLEVELAND, OH
900 AM EDT THU JUL 24 2014

NOTE: "FAIR" INDICATES FEW OR NO CLOUDS BELOW 12,000 FEET WITH NO
SIGNIFICANT WEATHER AND/OR OBSTRUCTIONS TO VISIBILITY.

OHZ001>008-015>018-024>027-034-035-043-044-241400-
   NORTHWEST OHIO

CITY           SKY/WX    TMP DP  RH WIND       PRES   REMARKS
DEFIANCE       PTSUNNY   64  53  67 NE8       30.12S
FINDLAY        SUNNY     64  56  75 N10       30.09R
TOLEDO EXPRESS SUNNY     62  54  74 N9        30.11S
TOLEDO EXEC    SUNNY     65  55  70 N9        30.11S
LIMA           SUNNY     61  56  83 N8        30.10R
$$

OHZ009>014-019>023-028>033-038-089-241400-
   NORTHEAST OHIO

CITY           SKY/WX    TMP DP  RH WIND       PRES   REMARKS
CLE-HOPKINS    MOSUNNY   66  57  72 N8        30.08R
CLE-LAKEFRONT  PTSUNNY   67  57  70 NE5       30.05R
CUY CO. ARPT   MOSUNNY   66  59  77 E6        30.07R
LORAIN-ELYRIA  MOSUNNY   69  58  67 NE8       30.07S
ASHTABULA      MOSUNNY   65  57  75 VRB5      30.07R
AKRON-CANTON   MOSUNNY   64  57  78 NE8       30.06R
WOOSTER        SUNNY     65  58  78 N8        30.07R
MANSFIELD      SUNNY     64  58  80 N7        30.08R
YOUNGSTOWN     PTSUNNY   65  56  72 N9        30.05R
$$

OHZ042-051>053-060>062-070>072-077>081-241400-
  SOUTHWEST OHIO

CITY           SKY/WX    TMP DP  RH WIND       PRES   REMARKS
CINC-COVINGTON MOSUNNY   64  55  72 N12       30.06R
CINC-LUNKEN    MOSUNNY   65  57  75 N12       30.06R
HAMILTON       PTSUNNY   65  58  78 NE9       30.08R
DAYTON         MOSUNNY   63  57  81 N13       30.09R
WRIGHT-PAT AFB MOSUNNY   63  57  81 NE9       30.07S
DAYTON GENERAL CLOUDY    61  57  87 NE14      30.07R
WILMINGTON     PTSUNNY   62  56  80 NE15      30.05R
$$

OHZ036-037-039>041-045>050-054>059-063>069-073>076-082>088-241400-
  CENTRAL AND SOUTHEAST OHIO

CITY           SKY/WX    TMP DP  RH WIND       PRES   REMARKS
COLUMBUS       MOSUNNY   66  57  72 N10       30.05R
OSU AIRPORT    SUNNY     64  58  80 N8        30.06R
BOLTON FIELD   NOT AVBL
RICKENBACK AFB SUNNY     65  55  68 NE12      30.04S
NEWARK         PTSUNNY   65  57  75 N6        30.04R
MARION         SUNNY     64  58  80 N13       30.08R
LANCASTER      SUNNY     64  57  78 N9        30.04S
ZANESVILLE     PTSUNNY   63  56  78 N6        30.04R
NEW PHILLY     MOSUNNY   64  59  83 N7        30.05R
$$


USA.gov is the U.S. government's official web portal to all federal, state and local government web resources and services.